Hourly Data Report for October 22, 2013

All times are specified in Local Standard Time (LST). Add 1 hour to adjust for Daylight Saving Time where and when it is observed.

POND INLET A
NUNAVUT

72°41'22.000" N
77°58'08.000" W
61.60 m
2403206
71095
YIO

Download Data

Hourly Data (October 2013)
Hourly Data Report for October 22, 2013
Temp Definition
°C
Dew Point Temp Definition
°C
Rel Hum Definition
%
Wind Dir Definition
10's deg

Wind Spd Definition
km/h
Visibility Definition
km
Stn Press Definition
kPa
Hmdx Definition


Wind Chill Definition


Weather Definition


TIME
00:00 Legend Double Dagger -11.8 -14.1 84 15 17 16.1 101.61   -19 LegendNANA
01:00 Legend Double Dagger -11.4 -13.4 85 15 17 16.1 101.60   -19 LegendNANA
02:00 Legend Double Dagger -11.6 -14.1 82 15 13 16.1 101.59   -18 LegendNANA
03:00 Legend Double Dagger -11.2 -13.7 82 16 15 16.1 101.57   -18 LegendNANA
04:00 Legend Double Dagger -13.1 -15.7 81 15 18 16.1 101.58   -21 LegendNANA
05:00 Legend Double Dagger -10.1 -10.5 97 15 15 1.2 101.58   -17 LegendNANA
06:00 Legend Double Dagger -9.4 -9.9 96 14 15 3.2 101.56   -16 LegendNANA
07:00 Legend Double Dagger -10.7 -12.0 90 14 17 16.1 101.53   -18 LegendNANA
08:00 Legend Double Dagger -9.8 -11.0 91 14 15 16.1 101.49   -16 LegendNANA
09:00 Legend Double Dagger -8.7 -10.2 89 14 15 16.1 101.47   -15 LegendNANA
10:00 Legend Double Dagger -8.0 -9.1 92 15 13 4.8 101.48   -14 LegendNANA
11:00 Legend Double Dagger -7.6 -8.8 91 15 13 16.1 101.44   -13 LegendNANA
12:00 Legend Double Dagger -7.6 -9.0 90 17 11 16.1 101.40   -13 LegendNANA
13:00 Legend Double Dagger -7.9 -9.3 90 16 13 16.1 101.38   -14 LegendNANA
14:00 Legend Double Dagger -8.3 -10.0 88 17 13 16.1 101.38   -14 LegendNANA
15:00 Legend Double Dagger -8.1 -8.8 95 15 11 4.8 101.37   -13 LegendNANA
16:00 Legend Double Dagger -8.3 -9.0 95 17 15 12.9 101.35   -15 LegendNANA
17:00 Legend Double Dagger -10.1 -11.9 87 15 18 16.1 101.33   -18 LegendNANA
18:00 Legend Double Dagger -11.0 -12.8 87 14 18 16.1 101.30   -19 LegendNANA
19:00 Legend Double Dagger -12.2 -13.8 88 14 18 16.1 101.30   -20 LegendNANA
20:00 Legend Double Dagger -11.8 -13.3 89 14 22 16.1 101.27   -21 LegendNANA
21:00 Legend Double Dagger -10.0 -11.8 87 14 18 11.3 101.23   -17 LegendNANA
22:00 Legend Double Dagger -9.4 -10.8 90 15 21 12.9 101.18   -17 LegendNANA
23:00 Legend Double Dagger -9.5 -11.3 87 16 22 16.1 101.15   -18 LegendNANA

Notes on Data Quality.

Legend

  • E = Estimated
  • M = Missing
  • NA = Not Available
  • ‡ = Partner data that is not subject to review by the National Climate Archives
Date modified: